Location: Unspecified
(58.9933°N, 5.6375°E)
Time: 18:19:30
(UTC+01:00)

Cosmos 2058 - Visible Passes

Search period start: 24 February 2017 00:00
Search period end: 06 March 2017 00:00
Orbit: 564 x 585 km, 82.5° (Epoch: 23 February)

Date Brightness Start Highest point End Pass type
(mag) Time Alt. Az. Time Alt. Az. Time Alt. Az.
27 Feb 6.0 23:03:57 10° N 23:04:01 10° NNE 23:04:01 10° NNE visible
28 Feb 6.3 00:40:15 10° NNW 00:40:15 10° NNW 00:40:15 10° NNW visible
28 Feb 5.9 23:07:13 10° N 23:07:32 11° N 23:07:32 11° N visible
01 Mar 6.2 00:43:43 10° NNW 00:43:46 10° NNW 00:43:46 10° NNW visible
01 Mar 5.9 23:10:33 10° N 23:11:03 12° N 23:11:03 12° N visible
02 Mar 6.2 00:47:12 10° NNW 00:47:17 10° NNW 00:47:17 10° NNW visible
02 Mar 5.8 23:13:53 10° N 23:14:34 14° N 23:14:34 14° N visible
03 Mar 6.2 00:50:42 10° NNW 00:50:48 11° NNW 00:50:48 11° NNW visible
03 Mar 5.7 23:17:15 10° N 23:18:06 15° N 23:18:06 15° N visible
04 Mar 6.1 00:54:13 10° NNW 00:54:20 11° NNW 00:54:20 11° NNW visible
04 Mar 5.7 23:20:38 10° N 23:21:37 16° N 23:21:37 16° N visible
05 Mar 6.1 00:57:46 10° NNW 00:57:52 10° NNW 00:57:52 10° NNW visible
05 Mar 5.6 21:48:30 10° NNE 21:48:55 11° NNE 21:48:55 11° NNE visible
05 Mar 5.6 23:24:02 10° N 23:25:09 17° N 23:25:09 17° N visible
